This is the latest recevied weather packets stored in our database for station/object YC0ACE-13. If no packets are shown the sender has not sent any weather packets the latest 10 day(s).
| Time | Temp. | Humidity | Pressure | Rain* | Wind** | Luminosity | Snow |
|---|---|---|---|---|---|---|---|
| 1777505125 | 27.78° C | 84% | 1015.2 hPa | 0 mm | - | 30 W/m² | - |
| 1777504824 | 27.78° C | 84% | 1015.2 hPa | 0 mm | - | 24 W/m² | - |
| 1777504525 | 27.78° C | 84% | 1015.2 hPa | 0 mm | - | 19 W/m² | - |
| 1777504225 | 27.78° C | 83% | 1014.9 hPa | 0 mm | - | 13 W/m² | - |
| 1777503925 | 27.78° C | 83% | 1015.2 hPa | 0 mm | - | 9 W/m² | - |
| 1777503625 | 27.78° C | 83% | 1015.2 hPa | 0 mm | - | 5 W/m² | - |
| 1777503324 | 27.78° C | 83% | 1015.2 hPa | 0 mm | - | 2 W/m² | - |
| 1777503025 | 27.78° C | 82% | 1014.9 hPa | 0 mm | - | 1 W/m² | - |
| 1777502725 | 27.78° C | 82% | 1014.9 hPa | 0 mm | - | 0 W/m² | - |
| 1777502425 | 27.78° C | 82% | 1015.2 hPa | 0 mm | - | 0 W/m² | - |
| 1777502124 | 27.78° C | 81% | 1015.2 hPa | 0 mm | - | 0 W/m² | - |
| 1777501825 | 27.78° C | 80% | 1015.2 hPa | 0 mm | - | 0 W/m² | - |
| 1777501525 | 27.78° C | 80% | 1014.9 hPa | 0 mm | - | 0 W/m² | - |
| 1777501225 | 27.78° C | 80% | 1014.9 hPa | 0 mm | - | 0 W/m² | - |
| 1777500925 | 27.78° C | 79% | 1014.9 hPa | 0 mm | - | 0 W/m² | - |
| 1777500625 | 27.78° C | 79% | 1014.9 hPa | 0 mm | - | 0 W/m² | - |
| 1777500326 | 27.78° C | 81% | 1014.6 hPa | 0 mm | - | 0 W/m² | - |
| 1777500026 | 27.78° C | 82% | 1014.6 hPa | 0 mm | - | 0 W/m² | - |
| 1777499725 | 27.78° C | 83% | 1014.9 hPa | 0 mm | - | 0 W/m² | - |
| 1777499424 | 27.78° C | 84% | 1014.6 hPa | 0 mm | - | 0 W/m² | - |
| 1777499125 | 27.78° C | 84% | 1014.2 hPa | 0 mm | - | 0 W/m² | - |
| 1777498825 | 27.78° C | 84% | 1014.2 hPa | 0 mm | - | 0 W/m² | - |
| 1777498525 | 27.78° C | 84% | 1014.6 hPa | 0 mm | - | 0 W/m² | - |
| 1777498225 | 27.78° C | 84% | 1014.6 hPa | 0 mm | - | 0 W/m² | - |
| 1777497925 | 27.78° C | 85% | 1014.6 hPa | 0 mm | - | 0 W/m² | - |
* Rain latest hour (hover to see other rain measurements)
** Current wind speed in m/s (hover to see current wind gust speed)